Other Public Products
Issued by NWS Grand Forks, ND

Home | Current Version | Previous Version | Text Only | Print | Product List | Glossary Off
Versions: 1 2 3 4 5 6 7 8 9 10 11 12 13 14 15 16 17 18 19 20 21 22 23 24 25 26 27 28 29 30 31 32 33 34 35 36 37 38 39 40 41 42 43 44 45 46 47 48 49 50

000
FPUS83 KFGF 221531
OPUFGF
PRAIRIE TO PINES WEATHER ROUNDUP
NATIONAL WEATHER SERVICE EASTERN NORTH DAKOTA/GRAND FORKS ND
1000 AM CDT TUE APR 22 2014

 **SATELLITE DATA USED TO AUGMENT SKY COVER AT AUTOMATED STATIONS**
 *****  WEATHER ACROSS EASTERN NORTH DAKOTA  *****

CITY           SKY/WX    TMP DP  RH WIND       PRES   REMARKS
GRAND FORKS    MOSUNNY   47  36  65 SE8       30.13S
GRAND FORKS AF SUNNY     48  39  69 E9        30.12F
GRAND CITY NWS   N/A     50 N/A N/A E13         N/A
BUXTON           N/A     49  44  83 E8          N/A
DEVILS LAKE    MOSUNNY   46  30  53 SE6       30.07F
FARGO          PTSUNNY   49  35  58 SE5       30.13F
WAHPETON ARPT  MOSUNNY   50  32  50 S3        30.13F
$$

 *****  WEATHER ACROSS CENTRAL AND WESTERN NORTH DAKOTA  *****

CITY           SKY/WX    TMP DP  RH WIND       PRES   REMARKS
JAMESTOWN      MOSUNNY   49  32  52 S8        30.08F
BISMARCK       PTSUNNY   49  35  58 NE7       30.03F
MINOT          PTSUNNY   47  34  60 E7        30.01F
MINOT AFB      NOT AVBL
GARRISON         N/A     48  34  58 E9        30.00F
WILLISTON      SUNNY     56  29  35 SE14G24   29.92F
DICKINSON      CLOUDY    55  27  34 SE25G32   29.90F
HETTINGER      MOSUNNY   53  31  42 SE23G30   29.90F
$$

 *****  OTHER OBSERVATIONS NORTHEAST NORTH DAKOTA  *****

CITY           SKY/WX    TMP DP  RH WIND       PRES   REMARKS
WALHALLA         N/A     46  41  81 E8        30.10F
LANGDON        FAIR      54  32  43 S6        30.07F
CAVALIER       FAIR      46  36  66 SE9       30.11F HAZE
GRAFTON        FAIR      46  37  71 SE9       30.12F
CANDO          FAIR      50  32  50 SE7       30.07F
FORT TOTTEN      N/A     51  35  53 S6        29.95S
ROLLA          FAIR      50  34  53 S7        30.06F
RUGBY          FAIR      48  34  57 SE10      30.04F
 ***** THE ABOVE OBSERVATIONS ARE NON NWS ARE NOT QUALITY
        CONTROLLED AND MAY MIS-REPORT RAIN FOR SNOW...
$$

 *****  OTHER OBSERVATIONS SOUTHEAST NORTH DAKOTA *****

CITY           SKY/WX    TMP DP  RH WIND       PRES   REMARKS
COOPERSTOWN    FAIR      48  32  53 S9        30.09F
VALLEY CITY    FAIR      46  34  61 S5        30.10F
OAKES          FAIR      54  34  47 S12       30.10F
GWINNER        SUNNY     54  34  47 SW9       30.12F
SHEYENNE NWR     N/A     52  34  50 SW3       29.95S
BUFFALO        NOT AVBL
WYNDMERE       NOT AVBL
 ***** THE ABOVE OBSERVATIONS ARE NON NWS ARE NOT QUALITY
       CONTROLLED AND MAY MIS-REPORT RAIN FOR SNOW...
$$

  *****  WEATHER ACROSS NORTHERN MINNESOTA  *****

CITY           SKY/WX    TMP DP  RH WIND       PRES   REMARKS
FLAG ISLAND    SUNNY     37  25  60 CALM      30.14F
WARROAD        SUNNY     39  30  70 S3        30.16S
ROSEAU         MOSUNNY   43  30  61 CALM      30.15S
HALLOCK        CLOUDY    46  34  61 SE10      30.13F
THF RVR FALLS  PTSUNNY   43  27  52 SE8       30.15F
HALSTAD          N/A     52  32  47 SE6         N/A
FOSSTON        PTSUNNY   46  36  66 CALM      30.15S
BAUDETTE       SUNNY     41  24  51 N5        30.15S
WASKISH        SUNNY     39  28  65 W5        30.16S
CROOKSTON      MOSUNNY   46  34  61 SE8       30.14F
$$
  *****  WEATHER ACROSS CENTRAL AND WEST MINNESOTA  *****

CITY           SKY/WX    TMP DP  RH WIND       PRES   REMARKS
BEMIDJI        CLOUDY    38  27  63 CALM      30.15S
PARK RAPIDS    CLOUDY    41  27  57 W3        30.14F
WADENA         MOSUNNY   45  28  53 NE6       30.14F
DETROIT LAKES  MOSUNNY   46  34  61 SE3       30.14F
MOORHEAD       PTSUNNY   50  39  66 S5        30.14S
FERGUS FALLS   MOSUNNY   50  32  50 S3        30.11F
ELBOW LAKE     FAIR      49  34  56 CALM      30.14S
MORRIS MN      SUNNY     54  36  50 SW6       30.13F
STAPLES        CLOUDY    43  27  52 N6        30.15S
WHEATON        SUNNY     55  36  47 CALM      30.15F
$$
  *****  WEATHER ELSEWHERE ACROSS MINNESOTA  *****

CITY           SKY/WX    TMP DP  RH WIND       PRES   REMARKS
DULUTH         MOSUNNY   40  25  55 NW14      30.08S
INTRNTL FALLS  SUNNY     41  26  55 N7        30.13S
ELY            SUNNY     39  23  52 NW8G17    30.08S
CLOQUET        SUNNY     41  21  45 NW14G21   30.11S
BRAINERD       SUNNY     47  26  44 N6        30.15S
HIBBING        SUNNY     41  24  51 N12       30.11S
ALEXANDRIA     SUNNY     48  34  58 N3        30.15S
SAINT CLOUD    SUNNY     46  29  51 N8        30.15F
MINNEAPOLIS    MOSUNNY   46  28  49 NW15G22   30.14S
$$

  *****  WEATHER ACROSS SOUTH DAKOTA  *****

CITY           SKY/WX    TMP DP  RH WIND       PRES   REMARKS
SIOUX FALLS    MOSUNNY   52  31  44 S6        30.15F
BROOKINGS      NOT AVBL
WATERTOWN      SUNNY     50  34  54 S6        30.13F
HURON          SUNNY     54  32  43 S13       30.12F
SISSETON         N/A     54  32  43 CALM      30.12F
ABERDEEN       SUNNY     51  32  48 S13       30.11F
MITCHELL       SUNNY     55  33  43 S12       30.13F
PIERRE         CLOUDY    50  34  54 SE15      30.01F
MOBRIDGE       SUNNY     56  33  42 SE13      29.99F
RAPID CITY     MOSUNNY   55  35  47 S13       29.86F
$$

  *****  SOME WEATHER IN NEARBY STATES *****

CITY           SKY/WX    TMP DP  RH WIND       PRES   REMARKS
GLASGOW MT     MOSUNNY   54  32  43 E21G29    29.78F
GREAT FALLS MT PTSUNNY   55  29  36 SE6       29.67F
CHEYENNE WY    CLOUDY    55  36  48 S12       29.99F
SCOTTSBLUFF NE CLOUDY    58  39  49 SE14      29.94F
OMAHA NE       MOSUNNY   54  31  41 E10       30.17S
DES MOINES IA  MOSUNNY   55  31  39 N12       30.15R
DAVENPORT IA   SUNNY     50  35  56 N17       30.06S
CHICAGO IL     MOSUNNY   49  28  44 N16       29.98R
EAU CLAIRE WI  SUNNY     45  27  49 N9        30.07F
LA CROSSE WI   SUNNY     48  28  46 N13       30.08R
$$

  *****  SOME NATIONAL WEATHER *****

CITY           SKY/WX    TMP DP  RH WIND       PRES   REMARKS
LA GUARDIA NY  PTSUNNY   63  44  50 SW13      29.67F
RALEIGH NC     PTSUNNY   71  49  45 SW8       29.79F
ATLANTA GA     PTSUNNY   71  57  61 NW10      29.92S
NEW ORLEANS LA PTSUNNY   71  64  78 W9        29.99S
OKLAHOMA CITY  SUNNY     67  44  43 NE13      30.13S
ALBUQUERQUE NM MOSUNNY   62  40  44 NW7       30.16S
SALT LAKE CITY CLOUDY    69  31  24 S20G29    29.75F
LOS ANGELES CA CLOUDY    61  53  75 W6        29.97R
BOISE ID       LGT RAIN  48  44  86 N7        29.78S
SEATTLE WA     LGT RAIN  42  38  85 E6        29.91R
$$

*** WEATHER ACROSS MANITOBA...SASKATCHEWAN AND ONTARIO ***
                ***ONTARIO***

CITY           SKY/WX    TMP DP  RH WIND       PRES   REMARKS
GERALDTON      FLURRIES  28  25  86 NW12      29.98R WCI  18
THUNDER BAY    CLOUDY    39  28  65 NW15G24   30.02S
SIOUX LOOKOUT  PTSUNNY   37  25  60 N8        30.08S
TORONTO        PTSUNNY   55  50  82 W21G26    29.57R
BIG TROUT LK   SUNNY     34  23  64 NW6       30.05S
PICKLE LAKE    PTSUNNY   34  27  75 N3        30.05F
DRYDEN         MOSUNNY   39  27  60 NW9       30.09F
KENORA         SUNNY     39  23  52 NW5       30.13S
$$
                *** MANITOBA***

CITY           SKY/WX    TMP DP  RH WIND       PRES   REMARKS
BRANDON        PTSUNNY   45  37  76 SE3       30.09F
DAUPHIN        SUNNY     43  37  81 E3        30.07F
ISLAND LAKE    MOSUNNY   36  32  87 CALM      30.06S
PILOT MOUND      N/A     50  34  53 S6          N/A
THE PAS        MOSUNNY   46  32  57 SW7         N/A
THOMPSON       PTSUNNY   43  28  56 CALM      30.00S
WINNIPEG       PTSUNNY   45  32  61 S12       30.14S
LYNN LAKE      SUNNY     43  32  65 VRB3      29.96F
CHURCHILL      MOSUNNY   25  19  80 NE7       30.04S WCI  17
GILLAM         PTSUNNY   34  23  64 CALM      30.03S
$$
                ***SASKATCHEWAN***

CITY           SKY/WX    TMP DP  RH WIND       PRES   REMARKS
ESTEVAN        PTSUNNY   50  37  62 SE14      29.96F
KINDERSLEY     PTSUNNY   50  32  50 SE15      29.74
LLOYDMINSTER   PTSUNNY   45  32  61 E12       29.77F
PRINCE ALBERT  PTSUNNY   43  36  75 E8        29.91F
REGINA         MOSUNNY   48  36  61 SE18      29.92F



USA.gov is the U.S. government's official web portal to all federal, state and local government web resources and services.